Location: Unspecified
(42.3650°N, 71.1030°W)
Time: 11:45:37
(UTC+00:00)

Courier 1B - Pass Details

Date: 27 June 2024
Orbit: 962 x 1209 km, 28.3° (Epoch: 13 July)

Event Time Altitude Azimuth Distance (km) Brightness Sun altitude
Rises 02:20:58 0° 211° (SSW) 3,655 10.3 -16.1°
Enters shadow 02:23:26 - 198° (SSW) 3,049 9.7 -16.4°
Reaches altitude 10° 02:25:04 10° 187° (S) 2,743 - -16.6°
Maximum altitude 02:28:13 14° 158° (SSE) 2,505 - -16.9°
Drops below altitude 10° 02:31:26 10° 129° (SE) 2,817 - -17.2°
Sets 02:35:45 0° 106° (ESE) 3,829 - -17.6°
